DW7680 Weather Reports


Display with metric or nautical units.
time (UTC)temp
F
wind
direction
speed
MPH
gust
MPH
rain 1hr
in
rain 24hr
in
rain mn
in
humidity
%
barometer
mb
20260506003003 55 256 13.0 24.0 0.00 0.00 0.00 50 1005.0
20260506001503 56 234 13.0 24.0 0.00 0.00 0.00 50 1004.8
20260506000005 56 216 12.0 24.0 0.00 0.00 0.00 49 1004.6
20260505234503 56 240 13.0 28.0 0.00 0.00 0.00 51 1004.7
20260505233003 56 260 11.0 29.0 0.00 0.00 0.00 51 1004.6
20260505231503 56 246 15.0 32.0 0.00 0.00 0.00 50 1004.4
20260505230010 56 224 17.0 38.0 0.00 0.00 0.00 50 1004.4
20260505224502 56 259 16.0 31.0 0.00 0.00 0.00 52 1004.4
20260505223003 56 240 18.0 32.0 0.00 0.00 0.00 52 1004.3
20260505221503 56 231 19.0 38.0 0.00 0.00 0.00 52 1004.5
20260505220004 56 286 12.0 29.0 0.00 0.00 0.00 50 1004.6
20260505214502 56 260 18.0 30.0 0.00 0.00 0.00 51 1004.6
20260505213007 56 244 13.0 33.0 0.00 0.00 0.00 52 1004.8
20260505211508 55 243 18.0 37.0 0.00 0.00 0.00 55 1005.2
20260505210004 55 240 13.0 30.0 0.00 0.00 0.00 56 1005.2
20260505204503 54 276 16.0 32.0 0.00 0.00 0.00 60 1005.2
20260505203002 53 253 18.0 33.0 0.00 0.00 0.00 63 1005.4
20260505201502 54 277 11.0 21.0 0.00 0.00 0.00 60 1005.2
20260505200007 51 277 12.0 25.0 0.00 0.00 0.00 66 1005.4
20260505194502 52 235 16.0 33.0 0.00 0.00 0.00 68 1005.7
20260505193003 53 240 16.0 30.0 0.00 0.00 0.00 65 1005.5
20260505191509 54 269 11.0 25.0 0.00 0.00 0.00 58 1005.4
20260505190010 54 286 17.0 30.0 0.00 0.00 0.00 55 1005.4
20260505184507 58 255 15.0 30.0 0.00 0.00 0.00 46 1005.0
20260505183011 59 253 17.0 33.0 0.00 0.00 0.00 45 1004.6
20260505181503 57 254 21.0 41.0 0.00 0.00 0.00 45 1005.0
20260505180003 59 267 14.0 35.0 0.00 0.00 0.00 44 1004.7
20260505174506 57 250 20.0 39.0 0.00 0.00 0.00 44 1005.0
20260505173002 58 213 13.0 30.0 0.00 0.00 0.00 42 1005.1
20260505171506 58 263 13.0 32.0 0.00 0.00 0.00 38 1005.2
20260505170004 58 248 10.0 27.0 0.00 0.00 0.00 39 1005.4
20260505164503 57 257 16.0 32.0 0.00 0.00 0.00 39 1005.1
20260505163002 57 287 11.0 22.0 0.00 0.00 0.00 37 1005.3
20260505161502 57 285 7.0 18.0 0.00 0.00 0.00 38 1005.3
20260505153003 57 270 11.0 30.0 0.00 0.00 0.00 36 1004.6
20260505151503 56 240 11.0 21.0 0.00 0.00 0.00 38 1004.5
20260505124502 53 230 12.0 23.0 0.00 0.00 0.00 44 1003.2
20260505123003 53 250 13.0 29.0 0.00 0.00 0.00 45 1002.9
20260505121507 54 259 13.0 28.0 0.00 0.00 0.00 44 1003.0
20260505120005 53 313 13.0 26.0 0.00 0.00 0.00 44 1002.6
20260505114504 54 265 12.0 28.0 0.00 0.00 0.00 44 1002.6
20260505113010 54 229 13.0 33.0 0.00 0.00 0.00 43 1002.6
20260505111503 54 240 14.0 25.0 0.00 0.00 0.00 43 1002.6
20260505101501 56 239 11.0 26.0 0.00 0.00 0.00 41 1002.5
20260505100004 56 258 12.0 25.0 0.00 0.00 0.00 40 1002.9
20260505094503 56 264 11.0 24.0 0.00 0.00 0.00 39 1003.3
20260505093003 57 275 14.0 33.0 0.00 0.00 0.00 38 1003.3
20260505091502 57 241 13.0 29.0 0.00 0.00 0.00 37 1003.3
20260505090002 57 261 13.0 28.0 0.00 0.00 0.00 36 1003.5
20260505084500 57 262 14.0 25.0 0.00 0.00 0.00 36 1003.8
20260505083002 57 248 14.0 25.0 0.00 0.00 0.00 36 1004.3
20260505081501 57 254 10.0 23.0 0.00 0.00 0.00 35 1004.4
20260505080003 57 258 9.0 24.0 0.00 0.00 0.00 35 1004.4
20260505074502 57 268 9.0 16.0 0.00 0.00 0.00 35 1004.5
20260505073004 57 262 10.0 20.0 0.00 0.00 0.00 35 1004.7
20260505071503 57 266 9.0 17.0 0.00 0.00 0.00 35 1004.7
20260505070006 57 267 9.0 19.0 0.00 0.00 0.00 36 1004.5
20260505064509 57 260 10.0 21.0 0.00 0.00 0.00 35 1004.7
20260505063004 57 215 7.0 15.0 0.00 0.00 0.00 32 1004.8
20260505061505 58 261 10.0 21.0 0.00 0.00 0.00 30 1005.0
20260505060021 58 248 9.0 19.0 0.00 0.00 0.00 30 1005.2
20260505054503 59 257 13.0 23.0 0.00 0.00 0.00 29 1004.8
20260505053002 59 266 13.0 30.0 0.00 0.00 0.00 30 1004.9
20260505051503 60 281 11.0 24.0 0.00 0.00 0.00 31 1005.2
20260505041503 60 221 9.0 21.0 0.00 0.00 0.00 30 1005.9
20260505040003 60 245 8.0 24.0 0.00 0.00 0.00 30 1006.1
20260505034502 61 325 11.0 24.0 0.00 0.00 0.00 30 1006.2
20260505033010 61 214 11.0 23.0 0.00 0.00 0.00 29 1005.8
20260505031503 61 282 14.0 27.0 0.00 0.00 0.00 29 1005.7
20260505030003 61 271 13.0 26.0 0.00 0.00 0.00 29 1005.7
20260505024504 61 253 11.0 21.0 0.00 0.00 0.00 29 1005.6
20260505023003 61 240 12.0 26.0 0.00 0.00 0.00 29 1005.7
20260505021503 61 260 17.0 33.0 0.00 0.00 0.00 28 1005.9
20260505020003 61 290 10.0 23.0 0.00 0.00 0.00 27 1006.1
20260505014507 62 244 8.0 23.0 0.00 0.00 0.00 26 1005.9
20260505013003 62 254 10.0 23.0 0.00 0.00 0.00 26 1006.1
20260505011504 62 273 12.0 24.0 0.00 0.00 0.00 25 1006.4
20260505010005 62 263 8.0 21.0 0.00 0.00 0.00 27 1006.2
20260505004516 62 240 6.0 18.0 0.00 0.00 0.00 26 1006.5